• In Russia
  • List of Countries
  • For 7 days
  • Water Temperature
  • Satellite Maps
  • Weather Map
  • Weather Widgets
  • user-avatar
    Login

    Hourly Weather Gmunden

    Today, 22 April, Monday

    Time Temperature Precipitation Wind Pressure Humidity
    00:00 +9°C° 0 mm 2 mps 722 mmHg 70%
    01:00 +9°C° 0 mm 2 mps 722 mmHg 69%
    02:00 +9°C° 0 mm 2 mps 721 mmHg 72%
    03:00 +9°C° 0 mm 2 mps 721 mmHg 75%
    04:00 +9°C° 0 mm 1 mps 720 mmHg 77%
    05:00 +11°C° 0 mm 1 mps 720 mmHg 75%
    06:00 +12°C° 0 mm 1 mps 720 mmHg 74%
    07:00 +13°C° 0 mm 1 mps 720 mmHg 68%
    08:00 +15°C° 0 mm 1 mps 719 mmHg 62%
    09:00 +17°C° 0 mm 2 mps 719 mmHg 56%
    10:00 +20°C° 0 mm 2 mps 718 mmHg 49%
    11:00 +20°C° 0 mm 3 mps 718 mmHg 47%
    12:00 +21°C° 0 mm 3 mps 718 mmHg 44%
    13:00 +22°C° 0 mm 3 mps 717 mmHg 41%
    14:00 +22°C° 0 mm 4 mps 717 mmHg 43%
    15:00 +21°C° 0 mm 4 mps 716 mmHg 46%
    16:00 +20°C° 0 mm 5 mps 716 mmHg 49%
    17:00 +19°C° 0 mm 4 mps 716 mmHg 56%
    18:00 +17°C° 0 mm 4 mps 716 mmHg 63%
    19:00 +14°C° 0 mm 4 mps 715 mmHg 71%
    20:00 +13°C° 0 mm 4 mps 715 mmHg 72%
    21:00 +12°C° 0 mm 3 mps 715 mmHg 74%
    22:00 +11°C° 0 mm 3 mps 715 mmHg 76%
    23:00 +10°C° 0 mm 3 mps 715 mmHg 78%

    Tomorrow, 23 April, Tuesday

    Time Temperature Precipitation Wind Pressure Humidity
    00:00 +10°C° 0 mm 3 mps 715 mmHg 80%
    01:00 +9°C° 0 mm 3 mps 715 mmHg 82%
    02:00 +9°C° 0 mm 2 mps 714 mmHg 81%
    03:00 +8°C° 0 mm 2 mps 714 mmHg 81%
    04:00 +8°C° 0 mm 2 mps 713 mmHg 81%
    05:00 +9°C° 0 mm 3 mps 713 mmHg 77%
    06:00 +10°C° 0 mm 3 mps 713 mmHg 73%
    07:00 +11°C° 0 mm 3 mps 713 mmHg 69%
    08:00 +13°C° 0 mm 3 mps 713 mmHg 63%
    09:00 +17°C° 0 mm 4 mps 713 mmHg 56%
    10:00 +19°C° 0 mm 4 mps 713 mmHg 50%
    11:00 +19°C° 0 mm 4 mps 713 mmHg 50%
    12:00 +19°C° 0 mm 4 mps 713 mmHg 50%
    13:00 +19°C° 0 mm 4 mps 713 mmHg 50%
    14:00 +19°C° 0 mm 4 mps 713 mmHg 52%
    15:00 +18°C° 0 mm 4 mps 712 mmHg 54%
    16:00 +18°C° 0 mm 4 mps 712 mmHg 56%
    17:00 +17°C° 0 mm 4 mps 712 mmHg 59%
    18:00 +14°C° 0 mm 3 mps 712 mmHg 63%
    19:00 +13°C° 0 mm 3 mps 712 mmHg 67%
    20:00 +13°C° 0 mm 3 mps 713 mmHg 68%
    21:00 +12°C° 0 mm 3 mps 713 mmHg 69%
    22:00 +12°C° 0 mm 3 mps 713 mmHg 70%
    23:00 +12°C° 0 mm 2 mps 713 mmHg 73%

    Day after tomorrow, 24 April, Wednesday

    Time Temperature Precipitation Wind Pressure Humidity
    00:00 +12°C° 0 mm 2 mps 713 mmHg 75%
    01:00 +12°C° 0 mm 2 mps 714 mmHg 77%
    02:00 +10°C° 0 mm 2 mps 714 mmHg 78%
    03:00 +10°C° 0 mm 2 mps 714 mmHg 79%
    04:00 +10°C° 0 mm 2 mps 714 mmHg 79%
    05:00 +12°C° 0 mm 2 mps 714 mmHg 77%
    06:00 +13°C° 0 mm 2 mps 715 mmHg 75%
    07:00 +14°C° 0 mm 2 mps 715 mmHg 72%
    08:00 +16°C° 0 mm 2 mps 716 mmHg 65%
    09:00 +19°C° 0 mm 2 mps 716 mmHg 57%
    10:00 +21°C° 0 mm 2 mps 717 mmHg 49%
    11:00 +23°C° 0 mm 2 mps 717 mmHg 46%
    12:00 +25°C° 0 mm 2 mps 717 mmHg 43%
    13:00 +26°C° 0 mm 2 mps 717 mmHg 39%
    14:00 +26°C° 0 mm 2 mps 717 mmHg 40%
    15:00 +26°C° 0 mm 2 mps 717 mmHg 41%
    16:00 +25°C° 0 mm 2 mps 717 mmHg 42%
    17:00 +23°C° 0 mm 2 mps 717 mmHg 49%
    18:00 +20°C° 0 mm 2 mps 716 mmHg 56%
    19:00 +18°C° 0 mm 2 mps 716 mmHg 63%
    20:00 +17°C° 0 mm 3 mps 717 mmHg 64%
    21:00 +16°C° 0 mm 3 mps 717 mmHg 64%
    22:00 +14°C° 0 mm 3 mps 718 mmHg 64%
    23:00 +13°C° 0 mm 3 mps 719 mmHg 66%

    25 April, Thursday

    Time Temperature Precipitation Wind Pressure Humidity
    00:00 +13°C° 0 mm 3 mps 719 mmHg 68%
    01:00 +14°C° 0 mm 2 mps 720 mmHg 70%
    02:00 +13°C° 0 mm 2 mps 720 mmHg 74%
    03:00 +12°C° 0 mm 2 mps 720 mmHg 78%
    04:00 +12°C° 0 mm 1 mps 720 mmHg 82%
    05:00 +12°C° 0 mm 1 mps 720 mmHg 79%
    06:00 +13°C° 0 mm 1 mps 720 mmHg 76%
    07:00 +14°C° 0 mm 1 mps 720 mmHg 73%
    08:00 +17°C° 0 mm 2 mps 720 mmHg 66%
    09:00 +19°C° 0 mm 2 mps 720 mmHg 59%
    10:00 +21°C° 0 mm 2 mps 721 mmHg 52%
    11:00 +23°C° 0 mm 2 mps 720 mmHg 47%
    12:00 +25°C° 0 mm 2 mps 720 mmHg 42%
    13:00 +26°C° 0 mm 2 mps 720 mmHg 38%
    14:00 +26°C° 0 mm 2 mps 720 mmHg 37%
    15:00 +26°C° 0 mm 2 mps 720 mmHg 37%
    16:00 +26°C° 0 mm 2 mps 719 mmHg 37%
    17:00 +24°C° 0 mm 2 mps 719 mmHg 45%
    18:00 +21°C° 0 mm 2 mps 719 mmHg 53%
    19:00 +18°C° 0 mm 2 mps 719 mmHg 61%
    20:00 +17°C° 0 mm 2 mps 719 mmHg 63%
    21:00 +16°C° 0 mm 2 mps 719 mmHg 65%
    22:00 +13°C° 0 mm 3 mps 719 mmHg 67%
    23:00 +13°C° 0 mm 3 mps 719 mmHg 68%

    26 April, Friday

    Time Temperature Precipitation Wind Pressure Humidity
    00:00 +14°C° 0 mm 2 mps 719 mmHg 69%
    01:00 +14°C° 0 mm 2 mps 719 mmHg 70%
    02:00 +13°C° 0 mm 2 mps 719 mmHg 72%
    03:00 +13°C° 0 mm 2 mps 719 mmHg 74%
    04:00 +12°C° 0 mm 2 mps 719 mmHg 77%
    05:00 +13°C° 0 mm 1 mps 719 mmHg 75%
    06:00 +14°C° 0 mm 1 mps 719 mmHg 73%
    07:00 +15°C° 0 mm 1 mps 719 mmHg 70%
    08:00 +18°C° 0 mm 1 mps 719 mmHg 64%
    09:00 +20°C° 0 mm 1 mps 719 mmHg 58%
    10:00 +22°C° 0 mm 1 mps 719 mmHg 52%
    11:00 +21°C° 0 mm 2 mps 719 mmHg 53%
    12:00 +23°C° 0 mm 2 mps 718 mmHg 54%
    13:00 +22°C° 0 mm 3 mps 718 mmHg 55%
    14:00 +17°C° 1 mm 5 mps 718 mmHg 66%
    15:00 +13°C° 1 mm 6 mps 719 mmHg 78%
    16:00 +7°C° 1 mm 8 mps 719 mmHg 89%
    17:00 +6°C° 0.4 mm 7 mps 720 mmHg 89%
    18:00 +7°C° 0.4 mm 6 mps 721 mmHg 89%
    19:00 +6°C° 0.4 mm 4 mps 722 mmHg 90%
    20:00 +6°C° 0.1 mm 4 mps 723 mmHg 89%
    21:00 +7°C° 0.1 mm 3 mps 723 mmHg 89%
    22:00 +7°C° 0.1 mm 2 mps 724 mmHg 89%
    23:00 +7°C° 0 mm 2 mps 724 mmHg 88%

    27 April, Saturday

    Time Temperature Precipitation Wind Pressure Humidity
    00:00 +7°C° 0 mm 2 mps 724 mmHg 88%
    01:00 +7°C° 0 mm 2 mps 724 mmHg 87%
    02:00 +7°C° 0.1 mm 2 mps 725 mmHg 87%
    03:00 +7°C° 0.1 mm 2 mps 725 mmHg 87%
    04:00 +6°C° 0.1 mm 2 mps 725 mmHg 87%
    05:00 +7°C° 0.1 mm 2 mps 725 mmHg 85%
    06:00 +8°C° 0.1 mm 2 mps 725 mmHg 84%
    07:00 +8°C° 0.1 mm 2 mps 725 mmHg 83%
    08:00 +9°C° 0.1 mm 2 mps 725 mmHg 79%
    09:00 +10°C° 0.1 mm 2 mps 725 mmHg 75%
    10:00 +12°C° 0.1 mm 2 mps 725 mmHg 72%
    11:00 +11°C° 0.5 mm 3 mps 725 mmHg 76%
    12:00 +10°C° 0.5 mm 3 mps 725 mmHg 80%
    13:00 +10°C° 0.5 mm 4 mps 724 mmHg 85%
    14:00 +11°C° 0.1 mm 4 mps 724 mmHg 79%
    15:00 +11°C° 0.1 mm 4 mps 724 mmHg 74%
    16:00 +12°C° 0.1 mm 4 mps 724 mmHg 68%
    17:00 +11°C° 0 mm 3 mps 724 mmHg 72%
    18:00 +10°C° 0 mm 2 mps 724 mmHg 76%
    19:00 +10°C° 0 mm 1 mps 724 mmHg 80%
    20:00 +9°C° 0 mm 2 mps 724 mmHg 79%
    21:00 +8°C° 0 mm 2 mps 724 mmHg 79%
    22:00 +8°C° 0 mm 2 mps 724 mmHg 79%
    23:00 +9°C° 0.1 mm 1 mps 724 mmHg 81%
    Show more